Date,TemperatureHighF,TemperatureAvgF,TemperatureLowF,DewpointHighF,DewpointAvgF,DewpointLowF,HumidityHigh,HumidityAvg,HumidityLow,PressureMaxIn,PressureMinIn,WindSpeedMaxMPH,WindSpeedAvgMPH,GustSpeedMaxMPH,PrecipitationSumIn
2013-2-1,37.9,26.2,20.5,30.4,10.0,0.9,87,51,37,30.36,29.83,0,0,0,0.00
2013-2-2,37.2,28.4,18.1,23.3,13.3,5.3,74,54,37,30.35,29.96,0,0,0,0.00
2013-2-3,40.8,36.5,32.7,31.0,23.9,21.5,73,60,52,29.97,29.78,0,0,0,0.00
2013-2-4,47.3,41.4,35.6,24.4,22.5,17.7,55,47,35,30.07,29.85,0,0,0,0.00
2013-2-5,53.8,47.2,36.5,35.1,28.6,15.7,68,49,42,29.92,29.78,0,0,0,0.00
2013-2-6,56.9,50.8,41.6,31.8,23.5,11.7,61,37,17,30.18,29.88,0,0,0,0.00
2013-2-7,52.8,52.8,52.8,17.0,17.0,17.0,24,24,24,30.18,29.92,0,0,0,0.00
2013-2-8,52.8,49.2,40.2,45.1,28.8,17.0,100,51,24,30.01,29.79,0,0,0,0.00
2013-2-9,54.1,48.7,33.2,28.5,19.1,6.3,53,33,17,30.29,29.99,0,0,0,0.00
2013-2-10,52.3,49.4,36.8,27.0,20.2,15.6,62,32,23,30.39,30.08,0,0,0,0.00
2013-2-11,56.7,52.7,48.5,53.9,36.5,24.1,100,57,38,30.08,29.85,0,0,0,0.00
2013-2-12,57.0,53.2,42.1,41.2,28.8,13.6,56,40,18,30.05,29.81,0,0,0,0.00
2013-2-13,52.2,45.9,40.3,43.5,36.0,26.1,100,76,36,29.86,29.55,0,0,0,0.03
2013-2-14,49.1,46.6,42.6,42.3,34.8,30.3,99,67,48,29.99,29.79,0,0,0,0.00
2013-2-15,56.5,47.3,31.9,38.9,31.6,14.4,89,56,34,30.06,29.84,0,0,0,0.02
2013-2-16,37.8,32.6,23.5,27.9,19.0,8.7,80,57,39,29.96,29.79,0,0,0,0.00
2013-2-17,33.2,26.4,20.2,16.7,7.4,2.8,81,46,28,30.21,29.94,0,0,0,0.00
2013-2-18,49.6,36.7,22.9,23.7,15.8,3.7,62,43,30,30.33,30.11,0,0,0,0.00
2013-2-19,51.1,40.4,32.7,41.1,25.3,8.3,96,59,29,30.12,29.77,0,0,0,0.06
2013-2-20,46.0,37.0,29.8,12.9,5.2,-5.7,47,28,14,30.10,29.95,0,0,0,0.00
2013-2-21,56.3,42.0,28.1,32.5,11.3,2.7,82,30,15,30.19,30.02,0,0,0,0.03
2013-2-22,37.3,33.7,32.2,35.3,33.1,31.0,100,98,82,30.21,30.09,0,0,0,0.33
2013-2-23,48.9,39.6,32.7,44.2,38.3,32.7,100,96,80,30.10,29.77,0,0,0,0.17
2013-2-24,53.8,46.7,39.1,42.8,27.4,17.3,99,50,24,29.99,29.75,0,0,0,0.00
2013-2-25,41.6,35.9,32.8,25.2,22.8,19.3,65,59,41,30.15,29.95,0,0,0,0.00
2013-2-26,36.6,33.3,29.5,35.8,30.9,20.2,99,92,58,30.08,29.56,0,0,0,0.97
2013-2-27,53.8,43.4,32.4,36.6,31.8,27.0,100,65,48,29.73,29.59,0,0,0,0.00
2013-2-28,41.5,36.2,33.1,28.4,24.7,21.6,75,63,54,29.84,29.64,0,0,0,0.00